Location: Stoke Bliss
(52.2667°N, 2.5167°W)
Time: 01:30:34
(UTC+00:00)

DMSP B5D2-2 - Pass Details

Date: 03 March 2021
Orbit: 789 x 807 km, 98.3° (Epoch: 11 April)

Event Time Altitude Azimuth Distance (km) Brightness Sun altitude
Rises 19:45:48 0° 15° (NNE) 3,315 7.3 -17.9°
Reaches altitude 10° 19:48:09 10° 17° (NNE) 2,378 6.5 -18.2°
Maximum altitude 19:53:25 78° 104° (ESE) 816 3.9 -19.0°
Drops below altitude 10° 19:58:37 10° 191° (SSW) 2,352 6.5 -19.8°
Sets 20:00:56 0° 193° (SSW) 3,275 7.2 -20.1°
